Time,TemperatureF,DewpointF,PressureIn,WindDirection,WindDirectionDegrees,WindSpeedMPH,WindSpeedGustMPH,Humidity,HourlyPrecipIn,Conditions,Clouds,dailyrainin,SoftwareType,DateUTC
2013-01-09 00:32:00,44.0,38.0,29.91,NNE,28,0.0,-999.0,80,-99.99,,,-99.99,,2013-01-09 08:32:00,
2013-01-09 00:43:00,44.0,38.0,29.91,NNE,28,0.0,-999.0,80,-99.99,,,-99.99,,2013-01-09 08:43:00,
2013-01-09 00:53:00,44.0,38.0,29.91,NNE,28,0.0,-999.0,80,-99.99,,,-99.99,,2013-01-09 08:53:00,
2013-01-09 01:02:00,44.0,38.0,29.91,NNE,28,0.0,-999.0,80,-99.99,,,-99.99,,2013-01-09 09:02:00,
2013-01-09 03:33:00,44.0,39.0,29.88,NW,315,0.0,-999.0,81,-99.99,,,-99.99,,2013-01-09 11:33:00,
2013-01-09 03:42:00,44.0,39.0,29.88,NW,315,0.0,-999.0,81,-99.99,,,-99.99,,2013-01-09 11:42:00,
2013-01-09 03:53:00,44.0,39.0,29.88,NW,315,0.0,-999.0,81,-99.99,,,-99.99,,2013-01-09 11:53:00,
2013-01-09 04:02:00,44.0,39.0,29.88,NW,315,0.0,-999.0,81,-99.99,,,-99.99,,2013-01-09 12:02:00,
2013-01-09 06:33:00,42.0,39.0,29.85,NNE,18,0.0,-999.0,89,-99.99,,,-99.99,,2013-01-09 14:33:00,
2013-01-09 06:43:00,42.0,39.0,29.85,NNE,18,0.0,-999.0,89,-99.99,,,-99.99,,2013-01-09 14:43:00,
2013-01-09 06:53:00,42.0,39.0,29.85,NNE,18,0.0,-999.0,89,-99.99,,,-99.99,,2013-01-09 14:53:00,
2013-01-09 07:03:00,42.0,39.0,29.85,NNE,18,0.0,-999.0,89,-99.99,,,-99.99,,2013-01-09 15:03:00,
2013-01-09 09:33:00,44.0,40.0,29.86,NNE,18,0.0,-999.0,85,-99.99,,,-99.99,,2013-01-09 17:33:00,
2013-01-09 09:43:00,44.0,40.0,29.86,NNE,18,0.0,-999.0,85,-99.99,,,-99.99,,2013-01-09 17:43:00,
2013-01-09 09:53:00,44.0,40.0,29.86,NNE,18,0.0,-999.0,85,-99.99,,,-99.99,,2013-01-09 17:53:00,
2013-01-09 10:02:00,44.0,40.0,29.86,NNE,18,0.0,-999.0,85,-99.99,,,-99.99,,2013-01-09 18:02:00,
2013-01-09 12:33:00,49.0,44.0,29.81,ESE,106,1.0,-999.0,84,-99.99,,,-99.99,,2013-01-09 20:33:00,
2013-01-09 12:43:00,49.0,44.0,29.81,ESE,106,1.0,-999.0,84,-99.99,,,-99.99,,2013-01-09 20:43:00,
2013-01-09 12:53:00,49.0,44.0,29.81,ESE,106,1.0,-999.0,84,-99.99,,,-99.99,,2013-01-09 20:53:00,
2013-01-09 13:02:00,49.0,44.0,29.81,ESE,106,1.0,-999.0,84,-99.99,,,-99.99,,2013-01-09 21:02:00,
2013-01-09 15:33:00,50.0,45.0,29.76,SSW,201,0.0,-999.0,84,-99.99,,,-99.99,,2013-01-09 23:33:00,
2013-01-09 15:43:00,50.0,45.0,29.76,SSW,201,0.0,-999.0,84,-99.99,,,-99.99,,2013-01-09 23:43:00,
2013-01-09 15:53:00,50.0,45.0,29.76,SSW,201,0.0,-999.0,84,-99.99,,,-99.99,,2013-01-09 23:53:00,
2013-01-09 16:02:00,50.0,45.0,29.76,SSW,201,0.0,-999.0,84,-99.99,,,-99.99,,2013-01-10 00:02:00,
2013-01-09 18:33:00,43.0,38.0,29.76,ENE,66,3.0,-999.0,84,-99.99,,,-99.99,,2013-01-10 02:33:00,
2013-01-09 18:43:00,43.0,38.0,29.76,ENE,66,3.0,-999.0,84,-99.99,,,-99.99,,2013-01-10 02:43:00,
2013-01-09 18:52:00,43.0,38.0,29.76,ENE,66,3.0,-999.0,84,-99.99,,,-99.99,,2013-01-10 02:52:00,
2013-01-09 19:02:00,43.0,38.0,29.76,ENE,66,3.0,-999.0,84,-99.99,,,-99.99,,2013-01-10 03:02:00,
2013-01-09 21:33:00,40.0,34.0,29.80,ENE,57,1.0,-999.0,79,-99.99,,,-99.99,,2013-01-10 05:33:00,
2013-01-09 21:43:00,40.0,34.0,29.80,ENE,57,1.0,-999.0,79,-99.99,,,-99.99,,2013-01-10 05:43:00,
2013-01-09 21:52:00,40.0,34.0,29.80,ENE,57,1.0,-999.0,79,-99.99,,,-99.99,,2013-01-10 05:52:00,
2013-01-09 22:02:00,40.0,34.0,29.80,ENE,57,1.0,-999.0,79,-99.99,,,-99.99,,2013-01-10 06:02:00,